Flag for U.S.A. Weather past 2 weeks in Garland, Texas, U.S.A.

Now
93 °F

Sunny.


Feels Like: 93 °F
Forecast: 75 / 95 °F
Wind: 8 mph from East

Location: Mesquite Metro Airport

Current Time: Aug 27, 2014 at 6:40:54 PM

Latest Report: Aug 27, 2014 at 5:55 PM


Visibility: 10 mi

Pressure: 29.96 "Hg

Humidity: 32%

Dew point: 59 °F

Location of GarlandLocation

Historic Weather in Garland — Graph

°F

Garland temperature yesterday

Maximum temperature yesterday: 97 °F (at 3:47 PM)
Minimum temperature yesterday: 75 °F (at 6:50 AM)
Average temperature yesterday: 83 °F

Past Weeks' High & Low Weather Summary

 TemperatureHumidityPressure
High102 °F (Aug 16, 4:59 PM)100% (Aug 17, 10:50 AM)30.12 "Hg (Aug 17, 10:50 AM)
Low64 °F (Aug 14, 6:50 AM)22% (Aug 22, 4:50 PM)29.85 "Hg (Aug 19, 5:50 PM)
Average81 °F65%29.97 "Hg
* Reported Aug 12 4:50 PM — Aug 27 4:50 PM, Garland, Weather by CustomWeather, © 2014

Note: Actual official high and low records may vary slightly from our data, if they occured in-between our weather recording intervals... More about our weather records

Advertising

Garland weather history for previous 24 hours

 ConditionsComfort  
Time TempWeatherWind HumidityBarometerVisibility
4:50 PM
Aug 27
93 °FScattered clouds.7 mph34%29.97 "Hg10 mi
3:55 PM93 °FScattered clouds.10 mph36%29.99 "Hg10 mi
2:50 PM93 °FScattered clouds.6 mph36%30.01 "Hg10 mi
1:47 PM91 °FScattered clouds.9 mph38%30.04 "Hg10 mi
12:50 PM90 °FPartly sunny.9 mph43%30.05 "Hg10 mi
11:50 AM90 °FPartly sunny.5 mph43%30.08 "Hg10 mi
10:47 AM88 °FSunny.No wind46%30.08 "Hg10 mi
9:47 AM84 °FScattered clouds.5 mph58%30.07 "Hg10 mi
8:50 AM81 °FSunny.No wind70%30.06 "Hg10 mi
7:50 AM73 °FClear.No wind94%30.05 "Hg10 mi
6:47 AM73 °FClear.No wind89%30.03 "Hg10 mi
5:35 AM73 °FClear.No wind89%30.02 "Hg10 mi
5:15 AM74 °FClear.No wind87%30.02 "Hg10 mi
4:55 AM74 °FClear.No wind87%30.02 "Hg10 mi
4:35 AM74 °FClear.No wind86%30.03 "Hg10 mi
4:15 AM74 °FClear.No wind85%30.02 "Hg10 mi
3:35 AM74 °FClear.No wind83%30.03 "Hg10 mi
3:15 AM76 °FClear.No wind80%30.03 "Hg10 mi
2:55 AM76 °FClear.No wind79%30.02 "Hg10 mi
2:35 AM77 °FClear.3 mph77%30.02 "Hg10 mi
2:15 AM77 °FClear.3 mph76%30.03 "Hg10 mi
1:55 AM78 °FClear.No wind73%30.03 "Hg10 mi
1:35 AM78 °FClear.No wind71%30.02 "Hg10 mi
1:15 AM78 °FClear.3 mph73%30.02 "Hg10 mi
12:55 AM79 °FClear.No wind69%30.03 "Hg10 mi
12:35 AM80 °FClear.No wind67%30.03 "Hg10 mi
12:15 AM81 °FClear.3 mph64%30.02 "Hg10 mi
11:55 PM
Aug 26
82 °FClear.3 mph63%30.03 "Hg10 mi
11:35 PM82 °FPassing clouds.6 mph61%30.02 "Hg10 mi
11:15 PM82 °FClear.5 mph60%30.02 "Hg10 mi
10:55 PM83 °FClear.5 mph59%30.02 "Hg10 mi
10:35 PM84 °FClear.5 mph55%30.01 "Hg10 mi
10:15 PM85 °FClear.6 mph53%30.01 "Hg10 mi
9:55 PM85 °FClear.7 mph53%30.00 "Hg10 mi
7:47 PM90 °FSunny.6 mph43%29.96 "Hg10 mi
Weather by CustomWeather, © 2014

See weather overviewHow to use our weather pages